SCP
0 0 0 0 0 0 0 0 0 0 0 0 0 0 0 1 1 1 2 3 4 5 5 4 3 2 2 1 1 1 1 1 2 2 2 2 2 2 2 2 3 3 2 2
0 0 0 0 0 0 0 0 0 0 0 0 0 0 0 0 1 1 2 3 4 5 5 4 3 2 2 2 1 1 1 1 2 2 2 2 2 2 2 3 3 3 2 2
0 0 0 0 0 0 0 0 0 0 0 0 0 0 0 0 0 1 1 2 3 4 5 4 3 3 2 2 2 1 1 1 2 2 1 1 2 2 2 3 3 2 2 2
0 0 0 0 0 0 0 0 0 0 0 0 0 0 0 0 0 0 1 1 2 3 4 4 3 3 2 2 2 1 1 1 1 2 1 2 2 2 2 3 3 2 2 2
0 0 0 0 0 0 0 0 0 0 0 0 0 0 0 0 0 0 1 1 2 3 3 3 4 4 3 2 2 1 1 1 1 1 1 2 2 2 3 3 3 3 2 2
0 0 0 0 0 0 0 0 0 0 0 0 0 0 0 0 0 0 1 2 3 4 4 4 4 5 4 3 2 1 1 1 1 1 1 2 2 2 3 3 3 3 2 2
0 0 0 0 0 0 0 0 0 0 0 0 0 0 0 0 0 1 1 2 4 5 5 5 5 5 4 3 2 2 2 1 1 1 1 1 2 2 3 3 3 3 3 3
0 0 0 0 0 0 0 0 0 0 0 0 0 0 0 0 1 1 2 3 5 6 6 5 5 5 4 3 3 2 2 2 1 1 1 1 1 2 2 2 2 3 3 3
0 0 0 0 0 0 0 0 0 0 0 0 0 0 0 0 1 2 3 3 5 6 6 6 5 5 4 4 4 3 3 2 2 1 1 1 1 1 2 2 2 2 2 3
0 0 0 0 0 0 0 0 0 0 0 0 0 0 0 0 0 1 2 3 3 4 5 5 5 5 5 5 5 4 3 3 2 2 1 1 1 1 1 1 1 1 2 2
0 0 0 0 0 0 0 0 0 0 0 0 0 0 0 0 0 1 1 2 2 3 4 4 5 5 6 5 4 4 3 3 2 2 1 1 1 1 1 0 0 1 1 1
0 0 0 0 0 0 0 0 0 0 0 0 0 0 0 0 0 0 1 1 2 2 3 3 4 6 6 5 4 3 3 2 2 1 1 1 1 0 0 0 0 0 0 0
0 0 0 0 0 0 0 0 0 0 0 0 0 0 0 0 0 0 1 1 2 2 2 3 4 5 5 4 4 3 2 2 1 1 1 1 1 0 0 0 0 0 0 0
0 0 0 0 0 0 0 0 0 0 0 0 0 0 0 0 0 0 1 2 2 2 3 4 5 5 5 5 4 3 2 2 1 1 1 1 1 0 0 0 0 0 0 0
0 0 0 0 0 0 0 0 0 0 0 0 0 0 0 0 0 0 1 1 2 3 3 4 4 5 5 4 4 3 2 1 1 1 1 1 1 0 0 0 0 0 0 0
0 0 0 0 0 0 0 0 0 0 0 0 0 0 0 0 0 0 1 1 2 2 3 3 3 3 3 3 3 2 2 1 1 1 1 1 1 0 0 0 0 0 0 0
0 0 0 0 0 0 0 0 0 0 0 0 0 0 0 0 0 0 0 1 1 1 1 1 2 2 2 2 1 1 1 1 1 1 1 1 1 0 0 0 0 0 0 0
0 0 0 0 0 0 0 0 0 0 0 0 0 0 0 0 0 0 0 0 0 0 0 0 1 1 1 1 1 0 0 0 0 0 1 1 1 0 0 0 0 0 0 0
0 0 0 0 0 0 0 0 0 0 0 0 0 0 0 0 0 0 0 0 0 0 0 0 0 0 0 0 0 0 0 0 0 0 1 1 0 0 0 0 0 0 0 0
0 0 0 0 0 0 0 0 0 0 0 0 0 0 0 0 0 0 0 0 0 0 0 0 0 0 0 0 0 0 0 0 0 0 0 0 0 0 0 0 0 0 0 0
0 0 0 0 0 0 0 0 0 0 0 0 0 0 0 0 0 0 0 0 0 0 0 0 0 0 0 0 0 0 0 0 0 0 0 0 0 0 0 0 0 0 0 0
0 0 0 0 0 0 0 0 0 0 0 0 0 0 0 0 0 0 0 0 0 0 0 0 0 0 0 0 0 0 0 0 0 0 0 0 0 0 0 0 0 0 0 0
0 0 0 0 0 0 0 0 0 0 0 0 0 0 0 0 0 0 0 0 0 0 0 0 0 0 0 0 0 0 0 0 0 0 0 0 0 0 0 0 0 0 0 0
0 0 0 0 0 0 0 0 0 0 0 0 0 0 0 0 0 0 0 0 0 0 0 0 0 0 0 0 0 0 0 0 0 0 0 0 0 0 0 0 0 0 0 0
0 0 0 0 0 0 0 0 0 0 0 0 0 0 0 0 0 0 0 0 0 0 0 0 0 0 0 0 0 0 0 0 0 0 0 0 0 0 0 0 0 0 0 0
0 0 0 0 0 0 0 0 0 0 0 0 0 0 0 0 0 0 0 0 0 0 0 0 0 0 0 0 0 0 0 0 0 0 0 0 0 0 0 0 0 0 0 0
0 0 0 0 0 0 0 0 0 0 0 0 0 0 0 0 0 0 0 0 0 0 0 0 0 0 0 0 0 0 0 0 0 0 0 0 0 0 0 0 0 0 0 0
Wind_Speed
11 10 9 9 9 9 10 9 9 7 7 5 3 2 0 1 2 3 3 4 4 4 3 3 3 4 4 3 3 2 2 2 2 1 1 1 1 1 1 1 1 1 1 1
12 11 10 11 10 10 10 10 10 9 7 5 3 2 1 1 2 2 3 3 4 4 3 3 4 3 3 3 3 2 2 2 2 1 1 1 1 1 1 1 1 1 2 2
10 10 10 11 9 8 7 8 8 8 6 4 3 3 2 2 2 3 2 2 3 3 4 4 4 3 4 4 2 2 2 2 2 2 1 2 2 1 2 2 1 1 2 2
8 9 12 4 2 4 7 7 6 4 3 4 3 3 2 1 2 3 3 2 2 2 3 3 3 3 3 3 3 2 2 1 1 1 1 1 1 1 2 2 1 1 2 2
6 9 10 5 2 3 5 6 3 4 3 3 4 3 2 2 1 1 2 3 2 2 2 2 3 3 3 3 3 2 1 1 1 1 2 2 1 2 1 1 1 1 1 2
7 8 9 2 1 2 5 5 1 2 3 2 3 3 2 1 1 1 1 2 2 2 2 2 3 3 3 3 3 2 2 1 2 2 2 2 2 2 1 1 2 2 1 2
9 10 6 1 1 1 3 2 2 2 2 2 3 2 2 2 2 1 1 2 2 2 2 2 2 3 2 2 2 2 1 1 1 1 2 2 1 1 2 2 2 2 2 2
6 8 5 1 0 1 2 3 4 3 3 3 2 2 2 2 1 0 1 1 2 2 2 1 2 3 2 2 1 1 1 1 1 1 1 1 1 1 1 2 3 2 2 2
4 4 2 1 1 2 3 3 4 3 3 3 3 2 2 1 1 0 1 1 1 1 2 2 2 3 3 2 2 2 2 1 1 2 1 1 1 1 1 1 2 2 2 2
6 4 2 2 2 3 3 4 4 3 3 2 2 2 2 1 1 1 0 0 1 1 2 2 2 2 2 2 2 3 3 2 1 1 1 1 0 1 1 1 1 2 2 2
8 5 4 3 2 2 3 3 3 3 3 3 2 2 2 1 0 0 0 0 0 1 2 2 2 2 2 2 2 2 3 2 2 1 1 1 1 1 1 1 1 2 2 2
6 4 4 4 3 3 3 3 2 2 3 3 2 2 2 1 1 1 1 1 1 1 1 1 1 2 2 2 2 2 2 2 1 1 1 1 1 0 1 1 2 2 2 2
6 6 5 5 5 4 4 4 3 2 2 2 2 2 2 1 1 1 1 1 2 2 2 2 1 2 1 1 2 2 2 2 1 1 1 1 1 1 1 2 3 3 3 3
5 5 6 5 4 4 4 4 4 3 3 2 1 2 2 1 1 1 1 2 2 2 2 2 2 1 1 1 1 1 1 1 1 1 1 1 1 1 1 1 1 2 2 3
6 6 6 5 5 4 3 3 3 3 3 2 1 2 2 1 1 1 1 1 1 2 2 2 1 1 0 0 0 0 1 1 1 1 1 1 1 1 1 1 1 1 1 1
6 6 6 6 5 5 4 4 4 4 3 2 2 2 2 1 1 1 1 1 2 2 2 2 1 1 0 0 1 0 0 0 0 1 1 1 1 1 1 1 1 1 1 1
5 6 6 5 5 5 4 5 4 3 3 3 2 1 1 1 1 1 1 1 1 1 1 1 1 1 0 0 0 0 0 1 1 1 1 1 1 1 1 1 1 2 1 1
6 6 5 5 5 4 4 4 3 3 3 3 2 2 2 2 2 2 1 1 1 1 1 1 1 1 1 0 0 0 0 1 1 1 1 1 1 1 1 1 2 2 1 1
5 5 5 5 4 4 3 3 3 3 3 2 2 2 2 2 2 1 1 1 1 1 1 1 1 1 1 0 1 0 0 1 1 1 1 1 1 1 1 1 2 2 2 1
3 3 3 4 4 4 3 3 3 2 2 2 1 2 2 2 2 2 2 2 2 1 1 1 1 1 1 1 1 0 1 1 1 1 1 1 2 2 2 2 2 2 2 2
3 3 3 3 3 4 3 3 2 2 2 2 2 2 2 2 2 2 2 1 1 1 1 1 1 1 0 0 0 1 1 1 1 1 2 2 2 2 2 2 2 2 2 2
3 3 2 3 3 3 3 3 2 2 2 2 2 2 1 1 1 2 2 1 1 2 2 2 1 0 1 1 0 1 1 1 1 1 2 2 2 2 2 2 2 2 2 2
3 2 2 3 3 3 3 2 2 2 2 2 2 2 2 1 1 2 2 1 1 1 1 1 0 0 1 0 1 1 1 1 1 2 2 2 2 2 2 2 2 2 2 2
3 2 2 2 2 2 3 2 2 1 1 1 1 1 1 1 1 1 1 1 2 1 1 1 1 1 0 1 1 1 1 1 2 1 1 2 2 2 2 2 2 2 2 3
3 3 2 2 2 2 2 2 1 1 1 1 1 1 1 1 1 1 0 1 1 1 1 1 1 1 1 1 1 2 1 1 1 1 1 1 2 2 2 2 2 2 2 2
3 3 2 2 2 1 1 1 1 1 1 1 0 1 1 1 1 1 1 1 2 1 0 1 1 2 1 1 1 1 1 1 2 2 2 2 2 2 2 2 3 2 2 2
3 2 2 1 1 1 1 1 1 1 1 0 0 0 1 1 1 1 1 1 1 1 1 1 1 2 1 1 1 1 1 1 1 2 2 2 2 2 2 3 2 2 2 2
Wind_Direction
277 281 281 270 261 254 253 259 264 275 277 283 296 301 273 128 135 129 129 142 144 149 156 159 159 161 163 164 157 161 171 173 195 198 192 194 184 178 188 192 188 172 151 150
275 270 267 266 261 255 253 259 265 271 276 293 314 330 282 176 166 153 150 150 154 159 154 164 171 177 171 166 168 171 185 189 189 179 184 198 193 182 175 183 199 171 158 160
274 275 268 258 252 247 251 256 262 267 277 308 312 308 290 205 181 173 172 178 172 173 176 178 184 183 175 169 164 174 188 188 182 181 190 207 208 187 187 189 190 186 176 166
272 272 261 255 272 263 258 255 263 271 302 310 310 306 288 188 167 163 163 181 192 181 187 182 174 166 163 164 164 175 186 191 188 178 184 208 228 215 214 192 179 199 196 185
263 268 266 254 261 283 272 261 267 276 291 319 325 309 316 29 77 120 172 183 193 174 184 190 172 168 168 171 164 169 181 197 188 187 186 197 224 213 207 197 206 203 193 178
256 262 266 277 12 319 290 261 304 298 295 305 307 287 286 2 48 116 150 166 164 161 174 188 171 166 171 170 172 181 187 197 189 191 189 208 217 218 204 200 209 195 204 203
253 257 261 357 10 309 260 303 358 330 312 307 283 295 316 345 351 15 134 151 153 158 167 175 166 157 170 168 184 193 171 170 185 197 199 201 203 215 202 204 206 201 202 204
246 250 251 71 1 291 321 349 359 357 345 330 336 356 351 346 339 40 117 131 144 154 150 156 167 160 171 181 177 145 135 152 182 213 221 196 188 234 217 205 208 205 208 214
252 256 347 47 343 350 1 350 351 348 348 360 354 342 328 330 317 78 109 131 137 155 153 170 167 163 177 185 164 169 166 177 196 211 226 206 192 221 227 216 218 208 200 211
268 262 294 297 327 357 351 342 341 348 346 347 326 319 321 325 347 26 72 118 135 157 163 180 177 172 172 171 180 179 178 183 194 201 221 241 236 231 230 211 236 239 213 212
268 270 279 274 299 316 324 322 332 338 334 331 322 306 308 313 351 242 155 157 174 185 196 201 177 180 175 176 188 188 183 182 197 210 200 194 199 244 256 255 236 252 251 229
265 275 282 283 291 293 292 294 302 309 319 329 329 315 305 286 221 213 189 183 203 199 208 214 191 188 185 186 192 197 185 182 191 193 200 186 188 254 330 294 299 288 276 265
289 304 300 296 301 310 311 306 295 287 291 304 322 324 319 301 246 216 204 197 209 208 208 207 190 186 191 199 203 203 187 186 190 188 199 203 200 207 282 318 298 292 294 287
296 301 288 288 292 298 295 299 305 304 299 306 324 326 320 310 282 217 213 211 208 205 206 198 187 191 186 199 215 199 175 181 190 184 196 212 215 218 222 254 298 306 294 278
287 285 283 291 290 289 291 291 287 288 286 288 299 308 306 290 259 249 236 212 204 209 207 194 181 160 94 225 226 213 172 166 176 186 207 213 207 223 243 249 264 286 313 308
279 280 277 273 271 275 280 280 273 276 279 277 267 266 279 280 266 259 229 190 196 208 202 184 175 162 178 226 206 196 205 227 210 186 205 220 205 209 250 267 268 265 263 259
270 266 266 269 272 273 274 274 272 274 272 266 258 248 254 264 250 233 239 202 199 194 172 168 166 158 133 85 93 188 185 206 261 228 206 213 216 229 242 251 259 266 262 230
263 272 274 276 275 273 273 279 279 276 268 258 248 227 225 224 220 220 231 203 182 132 128 148 126 107 114 99 51 33 234 226 220 216 223 226 228 231 242 249 258 262 275 264
264 271 275 278 282 280 277 275 278 281 287 272 236 222 217 216 208 200 220 199 185 194 192 137 86 97 166 170 24 112 289 276 266 258 247 266 269 256 249 250 256 258 253 251
291 298 295 287 284 282 282 288 289 285 287 291 270 237 225 217 196 187 192 200 200 184 168 145 150 177 185 168 32 178 213 247 269 284 283 270 261 253 249 254 255 256 250 246
283 285 289 292 286 279 277 281 284 282 285 266 251 248 235 220 195 185 190 211 194 122 131 141 153 177 184 337 317 247 225 238 246 258 267 265 265 269 268 265 260 255 249 250
268 271 278 279 285 290 281 270 264 255 258 254 248 244 233 217 211 202 200 198 184 142 147 171 173 143 357 3 258 255 247 256 261 262 263 266 264 264 267 269 265 260 250 244
268 271 277 280 277 287 292 274 261 247 242 243 240 230 219 216 203 198 211 188 148 155 160 177 206 11 356 43 258 263 253 255 267 270 269 268 268 265 261 263 264 262 257 249
286 274 273 280 281 275 277 277 273 263 245 238 233 208 191 198 219 227 174 145 151 179 189 187 190 194 204 219 236 251 253 258 265 267 270 276 275 275 270 266 265 265 262 257
291 279 264 257 263 265 266 273 272 280 245 205 203 173 164 164 181 210 165 143 155 163 179 207 231 220 211 231 233 247 251 260 278 285 277 279 280 279 276 272 264 260 259 259
289 285 272 254 251 260 267 281 284 277 256 210 174 133 140 140 157 160 153 155 165 217 223 188 202 211 227 238 236 240 247 273 284 285 282 282 278 279 280 282 280 268 258 252
283 282 275 263 258 257 248 245 259 281 298 288 205 156 150 148 153 165 158 157 166 191 210 202 209 213 229 247 254 249 251 253 254 262 273 278 278 276 274 274 274 270 263 258